Location: Schommer Observatory
(40.5200°N, 74.4500°W)
Time: 13:43:33
(UTC-04:00)

Tiangong 2 - Pass Details

Date: 25 May 2018
Orbit: 382 x 385 km, 42.8° (Epoch: 24 May)

Event Time Altitude Azimuth Distance (km) Brightness Sun altitude
Rises 22:19:12 0° 276° (W) 2,250 5.6 -18.5°
Reaches altitude 10° 22:21:17 10° 282° (WNW) 1,397 4.6 -18.8°
Maximum altitude 22:24:23 53° 1° (N) 475 1.7 -19.1°
Enters shadow 22:25:10 40° 51° (NE) 580 1.9 -19.2°
